Location: Sternwarte ZA, Rosenfeld-Brittheim
(48.2889°N, 8.6789°E)
Time: 22:43:10
(UTC+02:00)

ISS - Visible Passes

Search period start: 17 May 2021 00:00
Search period end: 27 May 2021 00:00
Orbit: 417 x 422 km, 51.6° (Epoch: 17 May)

Date Brightness Start Highest point End Pass type
(mag) Time Alt. Az. Time Alt. Az. Time Alt. Az.
17 May -2.7 00:29:18 10° W 00:32:34 46° N 00:35:51 10° ENE visible
17 May -3.3 02:06:20 10° WNW 02:09:42 62° NNE 02:13:03 10° E visible
17 May -3.2 03:43:17 10° WNW 03:46:24 35° SW 03:49:32 10° SSE visible
17 May -3.7 22:04:51 10° SW 22:08:09 57° SSE 22:11:29 10° ENE visible
17 May -2.9 23:41:44 10° W 23:45:02 51° N 23:48:21 10° ENE visible
18 May -3.0 01:18:52 10° WNW 01:22:11 52° N 01:22:53 42° NE visible
18 May -1.0 02:55:44 10° WNW 02:55:47 10° WNW 02:55:47 10° WNW visible
18 May -3.2 22:54:10 10° W 22:57:31 60° NNW 23:00:52 10° ENE visible
19 May -2.7 00:31:22 10° WNW 00:34:38 47° N 00:36:27 22° ENE visible
19 May -1.7 02:08:14 10° WNW 02:09:23 20° WNW 02:09:23 20° WNW visible
19 May -3.6 22:06:39 10° WSW 22:10:00 76° NNW 22:13:24 10° ENE visible
19 May -2.6 23:43:50 10° WNW 23:47:05 45° N 23:50:16 11° ENE visible
20 May -2.9 01:20:46 10° WNW 01:23:12 44° WNW 01:23:12 44° WNW visible
20 May -2.7 22:56:16 10° W 22:59:32 46° N 23:02:48 10° ENE visible
21 May -3.4 00:33:17 10° WNW 00:36:39 63° NNE 00:37:06 55° ENE visible
21 May -2.8 22:08:41 10° W 22:11:59 50° N 22:15:17 10° ENE visible
21 May -3.0 23:45:48 10° WNW 23:49:07 52° N 23:51:03 22° E visible
22 May -1.8 01:22:41 10° WNW 01:23:59 21° W 01:23:59 21° W visible
22 May -2.8 22:58:17 10° WNW 23:01:34 47° N 23:04:51 10° E visible
23 May -3.4 00:35:10 10° WNW 00:37:58 57° W 00:37:58 57° W visible
23 May -2.6 22:10:44 10° WNW 22:14:00 45° N 22:17:16 10° ENE visible
23 May -3.8 23:47:41 10° WNW 23:51:04 80° NNE 23:51:59 45° E visible
24 May -1.0 01:24:50 10° W 01:24:55 10° W 01:24:55 10° W visible
24 May -3.4 23:00:12 10° WNW 23:03:33 63° NNE 23:06:01 17° E visible
25 May -2.1 00:37:09 10° WNW 00:38:57 25° W 00:38:57 25° W visible
25 May -3.0 22:12:42 10° WNW 22:16:00 52° N 22:19:19 10° E visible
25 May -3.6 23:49:34 10° WNW 23:52:51 52° SSW 23:53:00 51° SSW visible
26 May -3.8 23:02:02 10° WNW 23:05:24 75° SSW 23:07:06 27° SE visible
